Cloud_Cover
5 5 63 99 100 100 100 94 18 97 29 8 4 79 8 39 100 98 49 17 100 100 89 5 49 41 5 0 0 0 2 0 5 5 0 0 6 0 0 2 100 98 12 5 10 71 75 5 2
1 12 31 99 100 100 100 100 58 100 16 39 28 6 13 56 100 100 90 39 100 98 0 1 4 5 2 0 0 0 1 0 50 13 3 0 12 2 0 80 72 43 6 21 99 100 97 5 4
2 4 16 100 96 22 100 100 33 80 96 100 68 99 45 100 100 100 44 10 100 76 1 0 0 0 0 0 0 0 1 0 50 5 11 1 77 28 98 100 36 8 3 28 100 100 58 7 10
40 100 100 99 98 38 29 80 58 76 100 100 72 5 71 100 100 91 20 100 100 28 0 4 4 4 2 0 0 10 2 5 84 7 3 2 73 100 100 55 7 1 4 50 100 99 11 10 56
76 100 100 100 18 32 78 86 93 96 30 100 30 68 100 100 83 11 80 100 82 10 0 2 5 5 6 4 2 5 11 40 11 0 0 5 38 100 34 8 3 4 10 76 69 39 5 5 7
50 14 45 93 25 100 41 56 11 4 73 76 20 100 100 100 100 86 100 94 17 0 0 0 2 5 5 17 5 5 5 3 1 11 1 55 2 42 100 1 0 4 51 97 77 37 5 12 5
26 80 66 76 64 5 15 67 100 84 60 83 83 89 49 100 100 94 59 100 99 1 0 2 9 5 0 3 5 5 5 5 7 5 43 2 10 15 48 3 0 5 100 83 30 5 5 6 6
23 93 80 31 3 13 28 53 67 1 10 0 1 29 96 100 100 100 54 100 100 0 5 5 3 4 0 5 5 5 5 5 5 28 14 24 96 100 100 91 3 5 100 100 9 4 5 5 5
98 100 92 31 20 4 86 18 0 32 21 43 3 7 92 99 42 97 99 17 77 20 2 2 3 2 5 44 5 5 5 10 33 19 15 99 100 100 100 100 9 1 100 42 12 5 5 27 5
42 80 69 34 1 2 96 63 0 10 26 1 60 88 5 0 0 18 32 37 37 2 53 5 5 5 5 5 5 5 68 100 100 75 99 100 100 100 100 100 6 4 3 5 20 50 5 18 6
85 100 6 14 3 5 5 21 96 17 100 64 98 2 0 0 21 11 19 75 40 79 100 0 16 8 5 38 7 23 80 52 99 100 100 100 93 95 100 20 70 12 5 5 53 27 79 67 52
31 45 10 2 14 9 0 24 7 8 87 40 4 5 2 17 18 16 13 26 38 22 100 67 30 44 56 5 5 8 95 100 100 64 100 72 10 8 5 2 89 12 22 7 97 100 100 100 88
89 59 2 2 79 14 1 61 46 59 34 0 0 8 15 14 27 89 43 9 72 4 48 61 13 7 4 99 56 99 98 99 90 6 74 19 5 5 5 45 5 28 47 8 11 82 100 100 100
84 100 10 100 95 96 9 96 84 96 22 1 6 0 10 34 14 26 18 99 41 38 15 37 97 87 85 100 100 94 96 19 12 5 12 5 5 19 5 5 5 35 2 25 76 69 98 100 100
44 94 57 100 54 100 36 61 100 100 28 0 0 0 6 21 19 61 19 3 8 100 5 1 3 3 50 46 69 98 66 5 5 32 6 15 14 54 5 5 5 5 45 27 84 100 100 45 22
100 66 100 100 72 41 76 100 100 88 55 0 0 8 14 1 5 6 4 37 30 75 5 5 53 73 71 8 28 43 37 33 5 9 96 26 3 21 2 7 5 10 38 100 89 91 19 57 98
88 43 68 100 100 73 84 100 100 99 0 0 4 12 9 18 39 1 6 34 2 35 5 31 19 90 52 85 82 71 35 5 41 75 62 73 6 8 2 23 21 98 94 100 20 91 73 70 57
100 100 98 90 100 0 39 100 100 29 0 0 0 0 9 30 11 1 8 1 1 97 65 96 72 15 100 90 97 100 63 98 91 96 100 95 94 25 7 42 6 27 96 57 97 76 94 64 100
100 99 44 66 99 36 100 97 70 0 0 0 0 0 0 32 26 100 0 2 2 0 13 96 100 69 69 100 100 100 100 100 100 100 100 100 100 62 53 8 5 29 97 100 88 76 100 100 100
41 88 96 78 7 16 9 52 100 87 0 0 0 0 0 23 20 1 0 55 5 2 0 4 67 58 20 46 100 100 100 100 100 100 100 100 99 11 5 4 9 9 92 100 91 100 100 100 97
74 98 66 0 20 5 5 3 5 8 98 1 0 0 0 0 13 0 2 11 24 76 5 5 84 80 71 27 30 100 100 100 100 100 100 100 99 66 30 5 28 16 99 100 94 100 100 100 92
61 38 11 100 100 83 39 63 62 91 91 89 83 6 0 0 3 52 19 22 33 51 5 5 5 90 72 5 5 83 100 100 100 80 83 100 100 70 22 5 14 6 100 100 86 95 100 96 40
2 100 74 100 92 100 47 32 81 31 100 100 100 100 17 0 0 51 1 0 30 81 0 0 3 5 99 99 90 100 98 100 100 100 94 100 100 100 95 41 5 67 100 40 5 5 100 96 100
82 11 26 32 42 10 19 92 10 51 100 100 100 100 1 0 0 1 39 27 0 20 49 16 0 2 14 97 98 10 64 100 86 98 78 50 26 90 97 100 87 75 100 68 7 5 41 26 93
100 94 64 33 98 78 58 71 94 5 19 100 100 94 7 1 0 0 0 0 42 100 67 4 1 0 2 11 4 5 5 69 50 33 57 100 100 98 100 95 96 92 98 70 20 5 9 6 38
36 96 98 100 69 94 100 61 100 100 5 0 0 0 0 5 37 93 93 25 10 95 88 100 4 0 0 0 0 14 4 4 5 5 50 72 95 100 100 100 100 100 100 100 18 35 5 5 5
98 0 96 96 100 77 99 100 100 99 12 6 5 2 0 0 91 100 100 98 50 0 15 0 0 0 27 37 0 15 49 77 15 96 97 95 100 100 100 100 100 100 100 100 100 68 5 38 87
6 93 85 66 78 78 72 100 97 8 100 100 100 46 0 0 0 30 14 0 0 0 0 0 23 17 55 65 40 5 36 71 80 56 90 86 72 100 100 100 100 100 100 100 100 100 62 51 100
27 22 57 71 100 100 12 85 100 100 100 100 100 100 0 0 0 0 0 0 0 0 3 3 0 0 8 17 30 16 12 10 62 16 5 43 59 100 100 100 100 100 100 100 100 100 100 100 78
90 48 1 91 33 31 97 95 5 28 100 100 100 79 5 5 0 0 0 0 0 0 0 0 0 0 0 0 2 0 2 5 31 26 9 6 38 89 100 92 99 100 100 100 100 100 100 100 100